When you browse on this site, cookies collect data to enhance your experience and personalize the content and advertising you see.
Visit our Privacy Policy to learn more. By continuing to use the site, you agree to this use of cookies and data.

Meteo pe oră la Saint-Maur-des-Fosses

Astăzi, 4 Iulie, Sâmbătă

Timp Temperatura Precipitaţii Vânt Presiune Umiditate
00:00 +16°C° 0 mm 3 m/s 761 mmHg 80%
01:00 +16°C° 0 mm 3 m/s 761 mmHg 81%
02:00 +14°C° 0 mm 3 m/s 761 mmHg 83%
03:00 +14°C° 0 mm 4 m/s 760 mmHg 84%
04:00 +14°C° 0 mm 4 m/s 760 mmHg 81%
05:00 +14°C° 0 mm 4 m/s 760 mmHg 78%
06:00 +15°C° 0 mm 5 m/s 760 mmHg 75%
07:00 +15°C° 0 mm 5 m/s 760 mmHg 75%
08:00 +16°C° 0 mm 5 m/s 760 mmHg 74%
09:00 +16°C° 0 mm 5 m/s 760 mmHg 74%
10:00 +19°C° 0 mm 5 m/s 760 mmHg 71%
11:00 +21°C° 0 mm 6 m/s 760 mmHg 68%
12:00 +22°C° 0 mm 6 m/s 760 mmHg 65%
13:00 +22°C° 0 mm 6 m/s 760 mmHg 67%
14:00 +22°C° 0 mm 6 m/s 760 mmHg 69%
15:00 +22°C° 0 mm 6 m/s 759 mmHg 71%
16:00 +21°C° 0.2 mm 6 m/s 759 mmHg 76%
17:00 +20°C° 0.2 mm 5 m/s 759 mmHg 80%
18:00 +19°C° 0.2 mm 5 m/s 759 mmHg 85%
19:00 +19°C° 0 mm 5 m/s 759 mmHg 86%
20:00 +19°C° 0 mm 5 m/s 759 mmHg 87%
21:00 +19°C° 0 mm 5 m/s 759 mmHg 88%
22:00 +19°C° 0 mm 5 m/s 759 mmHg 89%
23:00 +19°C° 0 mm 5 m/s 759 mmHg 89%

Mâine, 5 Iulie, Duminică

Timp Temperatura Precipitaţii Vânt Presiune Umiditate
00:00 +19°C° 0 mm 4 m/s 759 mmHg 90%
01:00 +19°C° 0 mm 4 m/s 759 mmHg 89%
02:00 +19°C° 0 mm 4 m/s 758 mmHg 89%
03:00 +19°C° 0 mm 4 m/s 758 mmHg 88%
04:00 +19°C° 0 mm 4 m/s 758 mmHg 87%
05:00 +19°C° 0 mm 4 m/s 759 mmHg 85%
06:00 +20°C° 0 mm 5 m/s 759 mmHg 84%
07:00 +20°C° 0 mm 5 m/s 759 mmHg 80%
08:00 +20°C° 0 mm 5 m/s 759 mmHg 77%
09:00 +21°C° 0 mm 5 m/s 759 mmHg 74%
10:00 +21°C° 0 mm 5 m/s 759 mmHg 72%
11:00 +22°C° 0 mm 6 m/s 759 mmHg 70%
12:00 +22°C° 0 mm 6 m/s 759 mmHg 69%
13:00 +22°C° 0 mm 6 m/s 759 mmHg 70%
14:00 +22°C° 0 mm 6 m/s 758 mmHg 71%
15:00 +22°C° 0 mm 5 m/s 758 mmHg 72%
16:00 +22°C° 0.1 mm 5 m/s 758 mmHg 74%
17:00 +22°C° 0.1 mm 5 m/s 758 mmHg 76%
18:00 +21°C° 0.1 mm 5 m/s 758 mmHg 78%
19:00 +20°C° 0.1 mm 4 m/s 758 mmHg 79%
20:00 +19°C° 0.1 mm 4 m/s 758 mmHg 79%
21:00 +18°C° 0.1 mm 4 m/s 759 mmHg 80%
22:00 +17°C° 0 mm 4 m/s 759 mmHg 79%
23:00 +15°C° 0 mm 4 m/s 759 mmHg 79%

Poimâine, 6 Iulie, Luni

Timp Temperatura Precipitaţii Vânt Presiune Umiditate
00:00 +13°C° 0 mm 4 m/s 759 mmHg 78%
01:00 +13°C° 0 mm 4 m/s 759 mmHg 78%
02:00 +12°C° 0 mm 3 m/s 759 mmHg 79%
03:00 +12°C° 0 mm 3 m/s 759 mmHg 80%
04:00 +12°C° 0 mm 3 m/s 759 mmHg 77%
05:00 +13°C° 0 mm 3 m/s 760 mmHg 73%
06:00 +13°C° 0 mm 3 m/s 760 mmHg 70%
07:00 +15°C° 0 mm 4 m/s 760 mmHg 66%
08:00 +17°C° 0 mm 4 m/s 761 mmHg 61%
09:00 +18°C° 0 mm 4 m/s 761 mmHg 56%
10:00 +18°C° 0 mm 4 m/s 761 mmHg 55%
11:00 +19°C° 0 mm 4 m/s 761 mmHg 54%
12:00 +19°C° 0 mm 4 m/s 761 mmHg 53%
13:00 +20°C° 0 mm 4 m/s 761 mmHg 52%
14:00 +20°C° 0 mm 5 m/s 761 mmHg 51%
15:00 +21°C° 0 mm 5 m/s 761 mmHg 49%
16:00 +20°C° 0 mm 5 m/s 761 mmHg 52%
17:00 +19°C° 0 mm 4 m/s 762 mmHg 54%
18:00 +19°C° 0 mm 4 m/s 762 mmHg 57%
19:00 +18°C° 0 mm 4 m/s 762 mmHg 61%
20:00 +16°C° 0 mm 3 m/s 762 mmHg 65%
21:00 +14°C° 0 mm 3 m/s 763 mmHg 69%
22:00 +14°C° 0 mm 2 m/s 763 mmHg 73%
23:00 +14°C° 0 mm 2 m/s 763 mmHg 76%

7 Iulie, Marţi

Timp Temperatura Precipitaţii Vânt Presiune Umiditate
00:00 +13°C° 0 mm 2 m/s 763 mmHg 80%
01:00 +13°C° 0 mm 1 m/s 763 mmHg 81%
02:00 +12°C° 0 mm 1 m/s 763 mmHg 83%
03:00 +12°C° 0 mm 1 m/s 763 mmHg 84%
04:00 +12°C° 0 mm 0 m/s 763 mmHg 82%
05:00 +13°C° 0 mm 0 m/s 763 mmHg 80%
06:00 +13°C° 0 mm 0 m/s 763 mmHg 78%
07:00 +15°C° 0 mm 0 m/s 763 mmHg 72%
08:00 +17°C° 0 mm 0 m/s 763 mmHg 65%
09:00 +21°C° 0 mm 1 m/s 763 mmHg 58%
10:00 +22°C° 0 mm 1 m/s 763 mmHg 54%
11:00 +23°C° 0 mm 1 m/s 763 mmHg 50%
12:00 +24°C° 0 mm 1 m/s 763 mmHg 46%
13:00 +24°C° 0 mm 2 m/s 762 mmHg 46%
14:00 +24°C° 0 mm 2 m/s 762 mmHg 46%
15:00 +24°C° 0 mm 3 m/s 762 mmHg 46%
16:00 +24°C° 0 mm 3 m/s 762 mmHg 49%
17:00 +22°C° 0 mm 3 m/s 762 mmHg 52%
18:00 +21°C° 0 mm 3 m/s 762 mmHg 56%
19:00 +20°C° 0 mm 3 m/s 762 mmHg 59%
20:00 +18°C° 0 mm 3 m/s 762 mmHg 62%
21:00 +16°C° 0 mm 3 m/s 763 mmHg 65%
22:00 +16°C° 0 mm 3 m/s 763 mmHg 68%
23:00 +15°C° 0 mm 2 m/s 762 mmHg 71%

8 Iulie, Miercuri

Timp Temperatura Precipitaţii Vânt Presiune Umiditate
00:00 +14°C° 0 mm 2 m/s 762 mmHg 75%
01:00 +14°C° 0 mm 2 m/s 762 mmHg 77%
02:00 +13°C° 0 mm 1 m/s 762 mmHg 79%
03:00 +13°C° 0 mm 1 m/s 762 mmHg 80%
04:00 +14°C° 0 mm 1 m/s 762 mmHg 78%
05:00 +14°C° 0 mm 1 m/s 762 mmHg 75%
06:00 +15°C° 0 mm 1 m/s 762 mmHg 73%
07:00 +18°C° 0 mm 1 m/s 762 mmHg 65%
08:00 +20°C° 0 mm 1 m/s 762 mmHg 57%
09:00 +22°C° 0 mm 1 m/s 762 mmHg 50%
10:00 +22°C° 0 mm 0 m/s 761 mmHg 46%
11:00 +23°C° 0 mm 0 m/s 761 mmHg 41%
12:00 +25°C° 0 mm 0 m/s 761 mmHg 37%
13:00 +25°C° 0 mm 0 m/s 761 mmHg 36%
14:00 +27°C° 0 mm 1 m/s 760 mmHg 36%
15:00 +28°C° 0 mm 1 m/s 760 mmHg 35%
16:00 +27°C° 0 mm 1 m/s 760 mmHg 41%
17:00 +26°C° 0 mm 2 m/s 760 mmHg 46%
18:00 +26°C° 0 mm 2 m/s 760 mmHg 51%
19:00 +24°C° 0 mm 2 m/s 760 mmHg 56%
20:00 +21°C° 0 mm 2 m/s 760 mmHg 60%
21:00 +19°C° 0 mm 2 m/s 760 mmHg 65%
22:00 +19°C° 0 mm 2 m/s 760 mmHg 68%
23:00 +18°C° 0 mm 2 m/s 760 mmHg 71%

9 Iulie, Joi

Timp Temperatura Precipitaţii Vânt Presiune Umiditate
00:00 +18°C° 0 mm 1 m/s 760 mmHg 73%
01:00 +18°C° 0 mm 1 m/s 760 mmHg 75%
02:00 +16°C° 0 mm 1 m/s 760 mmHg 76%
03:00 +16°C° 0 mm 1 m/s 760 mmHg 77%
04:00 +16°C° 0 mm 1 m/s 760 mmHg 77%
05:00 +18°C° 0 mm 1 m/s 760 mmHg 76%
06:00 +18°C° 0 mm 1 m/s 760 mmHg 75%
07:00 +20°C° 0 mm 1 m/s 760 mmHg 71%
08:00 +21°C° 0 mm 1 m/s 760 mmHg 67%
09:00 +21°C° 0 mm 2 m/s 760 mmHg 63%
10:00 +24°C° 0 mm 2 m/s 760 mmHg 60%
11:00 +25°C° 0 mm 2 m/s 760 mmHg 56%
12:00 +26°C° 0 mm 2 m/s 760 mmHg 53%
13:00 +26°C° 0 mm 3 m/s 760 mmHg 53%
14:00 +27°C° 0 mm 3 m/s 759 mmHg 52%
15:00 +27°C° 0 mm 3 m/s 759 mmHg 52%
16:00 +26°C° 0.1 mm 3 m/s 759 mmHg 57%
17:00 +25°C° 0.1 mm 3 m/s 759 mmHg 61%
18:00 +24°C° 0.1 mm 3 m/s 759 mmHg 66%
19:00 +22°C° 0 mm 3 m/s 759 mmHg 71%
20:00 +20°C° 0 mm 2 m/s 759 mmHg 76%
21:00 +19°C° 0 mm 2 m/s 760 mmHg 81%
22:00 +19°C° 0 mm 2 m/s 759 mmHg 82%
23:00 +19°C° 0 mm 2 m/s 759 mmHg 83%
Arată mai mult